Welcome to the New NWS' Forecast!
Most changes are behind the scenes, but click here for differences you might notice.

Regional Weather Roundup (RWR)

Issued by Gray - Portland, ME (GYX)

                            
276 
ASUS41 KGYX 201205
RWRGYX
WEATHER ROUNDUP FOR MAINE AND NEW HAMPSHIRE
NATIONAL WEATHER SERVICE GRAY ME
800 AM EDT FRI JUL 20 2018

MEZ002-005-006-010-012-015-018-020-021-024-026-027-029-201300-
MAINE
  
CITY           SKY/WX    TMP DP  RH WIND       PRES   REMARKS
PORTLAND       FAIR      67  57  70 CALM      30.17R                  
6HR MIN TEMP:  54; 6HR MAX TEMP:  67;                                

SANFORD        FAIR      65  57  75 CALM      30.18R                  
BAR HARBOR     FAIR      66  57  72 CALM      30.18R                  
WISCASSET      FAIR      64  58  80 CALM      30.19R                  
6HR MIN TEMP:  51; 6HR MAX TEMP:  64;                                

ROCKLAND       FAIR      66  57  72 CALM      30.18R                  
FRYEBURG       FAIR      64  57  78 CALM      30.19R                  
6HR MIN TEMP:  48; 6HR MAX TEMP:  64;                                

LEWISTONAUBURN FAIR      62  56  80 N5        30.19R                  
AUGUSTA        FAIR      64  56  75 NE3       30.18R                  
6HR MIN TEMP:  55; 6HR MAX TEMP:  65;                                

WATERVILLE     FAIR      64  57  78 CALM      30.16R                  
BANGOR         FAIR      63  54  72 CALM      30.18R                  
6HR MIN TEMP:  54; 6HR MAX TEMP:  63;                                

GREENVILLE       N/A     68  57  68 CALM      30.19R                  
6HR MIN TEMP:  56; 6HR MAX TEMP:  68;                                

MILLINOCKET    FAIR      67  55  65 CALM      30.18R                  
6HR MIN TEMP:  54; 6HR MAX TEMP:  67;                                

HOULTON        FAIR      65  57  75 SW6       30.16R                  
6HR MIN TEMP:  48; 6HR MAX TEMP:  65;                                

PRESQUE ISLE   FAIR      66  55  67 VRB3      30.17R                  
6HR MIN TEMP:  51; 6HR MAX TEMP:  66;                                

FRENCHVILLE    FAIR      68  52  56 W5        30.15R                  
6HR MIN TEMP:  61; 6HR MAX TEMP:  68;                                

CARIBOU        FAIR      66  54  65 S6        30.15R                  
6HR MIN TEMP:  55; 6HR MAX TEMP:  66;                                

$$

NHZ002-005-008-009-011-012-014-201300-
NEW HAMPSHIRE
  
CITY           SKY/WX    TMP DP  RH WIND       PRES   REMARKS
PORTSMOUTH     SUNNY     66  57  71 CALM      30.16R                  
ROCHESTER      FAIR      65  58  78 CALM      30.17R                  
6HR MIN TEMP:  53; 6HR MAX TEMP:  65;                                

NASHUA         FAIR      63  58  83 CALM      30.18R                  
MANCHESTER     FAIR      66  56  70 CALM      30.16R                  
6HR MIN TEMP:  58; 6HR MAX TEMP:  66;                                

CONCORD        FAIR      63  56  78 NW5       30.18R                  
6HR MIN TEMP:  51; 6HR MAX TEMP:  63;                                

LACONIA        FAIR      64  56  75 W5        30.19R                  
PLYMOUTH       FAIR      55  54  95 CALM      30.20R                  
BERLIN         FAIR      53  52  96 CALM      30.22R                  
6HR MIN TEMP:  46; 6HR MAX TEMP:  53;                                

WHITEFIELD     FAIR      59  53  80 CALM      30.21R                  
6HR MIN TEMP:  44; 6HR MAX TEMP:  59;                                

JAFFREY        FAIR      64  61  90 CALM      30.20R                  
6HR MIN TEMP:  52; 6HR MAX TEMP:  64;                                

KEENE          FAIR      62  56  80 CALM      30.21R                  
LEBANON        FAIR      61  52  72 CALM      30.19S                  
6HR MIN TEMP:  51; 6HR MAX TEMP:  61;                                

MT WASHINGTON  NOT AVBL                                               
$$

VTZ005-007-008-201300-
VERMONT
  
CITY           SKY/WX    TMP DP  RH WIND       PRES   REMARKS
ST JOHNSBURY     N/A     57  53  86 MISG      30.19S                  
MONTPELIER     FAIR      59  55  87 CALM      30.23R                  
BURLINGTON     FAIR      68  53  58 S6        30.16R                  
$$

MAZ007-012-024-CTZ003-RIZ002-NYZ038-NYZ072-201300-
SOUTHERN NEW ENGLAND AND NY
  
CITY           SKY/WX    TMP DP  RH WIND       PRES   REMARKS
BOSTON         FAIR      73  58  59 W7        30.17R                  
NANTUCKET      FAIR      68  61  78 CALM      30.18S                  
PROVIDENCE     FAIR      70  62  76 VRB3      30.18R                  
HARTFORD       FAIR      64  57  78 N3        30.18R                  
ALBANY         FAIR      66  58  75 CALM      30.17R                  
NEW YORK CITY  FAIR      72  65  78 NE8       30.16R                  
$$

ANZ081-ANZ082-ANZ150-NHZ014-MEZ023>029-201300-
COASTAL MARINE OBSERVATIONS
  
STATION/POSITION TIME  TEMP    WIND        PRES    WAVE
                       AIR SEA DIR/SP/G            HT/PER
                 (UTC) (F)     (DEG/KT/KT) (MB)    (FT/S)
MOUNT DESERT ROC 1200   62     240/  5/  5 1022.2R
MATINICUS ROCK   1100   65     210/  6/  6 1021.0R
ISLE OF SHOALS   1100   62     270/  5/  5 1020.7R
JEFFREYS LEDGE   1136      67                N/A     2/ 8
$$

.............KEY..............
   WCI - WIND CHILL
   TC  - TEMPERATURE IN CELSIUS
   VSB - VISIBILITY IN MILES
   HX  - HEAT INDEX
   FAIR- INDICATES FEW OR NO CLOUDS BELOW 12,000 FT, WITH NO 
         SIGNIFICANT WEATHER AND/OR OBSTRUCTIONS TO VISIBILITY.